GW7083 Weather Reports


time (UTC)temp
F
wind
direction
speed
knots
gust
knots
rain 1hr
in
rain 24hr
in
rain mn
in
humidity
%
barometer
mb
20260509011520 55 155 0.0 0.0 0.00 0.00 0.00 81 1015.7
20260509011017 55 156 0.0 0.9 0.00 0.00 0.00 82 1015.7
20260509010515 55 153 0.0 0.9 0.00 0.00 0.00 82 1015.7
20260509010011 55 152 0.0 0.0 0.00 0.00 0.00 81 1015.9
20260509005510 55 150 0.9 0.9 0.00 0.00 0.00 81 1015.7
20260509005009 55 139 0.0 0.9 0.00 0.00 0.00 80 1015.5
20260509004506 55 160 0.0 0.9 0.00 0.00 0.00 79 1015.4
20260509004004 56 153 0.9 0.9 0.00 0.00 0.00 80 1015.4
20260509003502 56 160 0.0 0.9 0.00 0.00 0.00 80 1015.5
20260509002958 56 165 0.0 0.9 0.00 0.00 0.00 81 1015.3
20260509002456 56 160 0.0 0.9 0.00 0.00 0.00 80 1015.6
20260509001953 57 163 0.0 0.9 0.00 0.00 0.00 79 1015.4
20260509001450 57 178 0.0 0.9 0.00 0.00 0.00 78 1015.4
20260509000946 57 178 0.0 0.9 0.00 0.00 0.00 77 1015.3
20260509000447 58 166 0.0 0.9 0.00 0.00 0.00 77 1015.3
20260508235940 58 177 0.0 0.0 0.00 0.00 0.00 76 1015.4
20260508235439 58 178 0.0 0.0 0.00 0.00 0.00 76 1015.0
20260508234935 59 189 0.0 0.9 0.00 0.00 0.00 75 1015.2
20260508234431 59 174 0.0 0.0 0.00 0.00 0.00 71 1015.1
20260508233929 59 149 0.0 0.0 0.00 0.00 0.00 72 1015.6
20260508233428 60 175 0.0 0.9 0.00 0.00 0.00 73 1015.2
20260508232925 60 315 2.6 4.3 0.00 0.00 0.00 68 1015.3
20260508232422 60 287 0.9 0.9 0.00 0.00 0.00 66 1015.1
20260508231919 60 189 0.9 1.7 0.00 0.00 0.00 65 1015.2
20260508231416 61 179 0.9 0.9 0.00 0.00 0.00 70 1015.1
20260508230913 61 122 0.9 0.9 0.00 0.00 0.00 64 1015.0
20260508230410 61 166 0.0 0.9 0.00 0.00 0.00 66 1015.2
20260508225907 61 347 1.7 1.7 0.00 0.00 0.00 64 1015.2
20260508225403 61 206 0.0 2.6 0.00 0.00 0.00 62 1014.8
20260508224901 61 274 2.6 2.6 0.00 0.00 0.00 63 1015.0
20260508224358 62 46 0.9 1.7 0.00 0.00 0.00 62 1015.1
20260508223856 62 296 0.9 1.7 0.00 0.00 0.00 65 1015.1
20260508223353 62 258 0.9 0.9 0.00 0.00 0.00 61 1015.2
20260508222851 62 25 0.9 4.3 0.00 0.00 0.00 63 1015.2
20260508222348 62 277 1.7 2.6 0.00 0.00 0.00 62 1015.1
20260508221844 63 171 0.0 0.9 0.00 0.00 0.00 67 1014.8
20260508221340 64 292 2.6 2.6 0.00 0.00 0.00 60 1014.8
20260508220836 63 165 0.0 1.7 0.00 0.00 0.00 58 1015.0
20260508220333 63 42 2.6 4.3 0.00 0.00 0.00 60 1015.1
20260508215829 62 328 2.6 2.6 0.00 0.00 0.00 60 1015.0
20260508215326 62 263 0.9 2.6 0.00 0.00 0.00 62 1014.8
20260508214823 62 124 0.0 4.3 0.00 0.00 0.00 59 1014.8
20260508214320 64 212 0.9 1.7 0.00 0.00 0.00 59 1015.1
20260508213817 63 176 0.0 1.7 0.00 0.00 0.00 59 1015.2
20260508213314 63 120 0.0 7.0 0.00 0.00 0.00 57 1015.1
20260508212810 64 199 0.9 0.9 0.00 0.00 0.00 58 1014.8
20260508212306 64 282 1.7 4.3 0.00 0.00 0.00 57 1014.6
20260508211802 65 134 3.5 4.3 0.00 0.00 0.00 56 1014.5
20260508211258 64 197 0.9 1.7 0.00 0.00 0.00 56 1015.0
20260508210756 65 222 0.9 1.7 0.00 0.00 0.00 58 1014.5
20260508210252 64 292 1.7 5.2 0.00 0.00 0.00 56 1014.5
20260508205749 66 212 0.0 0.9 0.00 0.00 0.00 52 1014.7
20260508205245 64 227 1.7 2.6 0.00 0.00 0.00 56 1014.8
20260508204742 64 128 1.7 2.6 0.00 0.00 0.00 56 1014.8
20260508204238 63 265 2.6 2.6 0.00 0.00 0.00 57 1014.7
20260508203734 62 20 0.9 1.7 0.00 0.00 0.00 57 1015.2
20260508203231 62 240 1.7 2.6 0.00 0.00 0.00 57 1015.1
20260508202727 63 318 4.3 5.2 0.00 0.00 0.00 56 1015.0
20260508202224 64 190 0.0 1.7 0.00 0.00 0.00 56 1015.1
20260508201721 64 162 0.9 0.9 0.00 0.00 0.00 55 1015.0
20260508201217 63 302 1.7 6.1 0.00 0.00 0.00 55 1015.1
20260508200714 63 205 0.9 5.2 0.00 0.00 0.00 54 1015.1
20260508200211 64 25 2.6 2.6 0.00 0.00 0.00 55 1015.4
20260508195707 64 305 1.7 2.6 0.00 0.00 0.00 56 1015.5
20260508195203 64 211 0.0 1.7 0.00 0.00 0.00 56 1015.4
20260508194700 63 358 2.6 2.6 0.00 0.00 0.00 58 1015.6
20260508194157 62 334 1.7 2.6 0.00 0.00 0.00 61 1015.6
20260508193654 64 285 1.7 2.6 0.00 0.00 0.00 54 1015.7
20260508193151 64 339 0.9 1.7 0.00 0.00 0.00 55 1016.0
20260508192647 65 145 1.7 2.6 0.00 0.00 0.00 52 1016.3
20260508192145 63 179 3.5 5.2 0.00 0.00 0.00 53 1016.0
20260508191642 63 357 1.7 4.3 0.00 0.00 0.00 56 1016.1
20260508191138 63 74 0.9 4.3 0.00 0.00 0.00 56 1016.0
20260508190635 63 284 1.7 1.7 0.00 0.00 0.00 56 1016.3
20260508190132 63 275 0.9 4.3 0.00 0.00 0.00 57 1016.3
20260508185629 63 353 1.7 2.6 0.00 0.00 0.00 57 1016.5
20260508185126 63 162 0.9 4.3 0.00 0.00 0.00 55 1016.3
20260508184624 63 231 1.7 4.3 0.00 0.00 0.00 56 1016.5
20260508184120 63 143 1.7 1.7 0.00 0.00 0.00 54 1016.4
20260508183617 65 291 6.1 6.1 0.00 0.00 0.00 52 1016.6
20260508183113 63 197 0.9 5.2 0.00 0.00 0.00 54 1016.4
20260508182609 62 166 0.0 2.6 0.00 0.00 0.00 55 1016.5
20260508182106 63 334 5.2 7.0 0.00 0.00 0.00 55 1016.5
20260508181601 64 330 7.8 9.6 0.00 0.00 0.00 53 1016.6
20260508181059 65 318 6.1 7.8 0.00 0.00 0.00 51 1016.7
20260508180555 63 129 0.9 1.7 0.00 0.00 0.00 56 1016.6
20260508180052 62 287 1.7 4.3 0.00 0.00 0.00 54 1016.8
20260508175548 61 291 2.6 6.1 0.00 0.00 0.00 54 1016.9
20260508175046 65 174 0.9 2.6 0.00 0.00 0.00 46 1016.8
20260508174543 64 280 4.3 6.1 0.00 0.00 0.00 45 1017.1
20260508174040 65 344 0.9 5.2 0.00 0.00 0.00 48 1017.0
20260508173537 66 216 0.9 1.7 0.00 0.00 0.00 51 1016.9
20260508173033 64 175 0.0 1.7 0.00 0.00 0.00 54 1016.9
20260508172530 63 228 1.7 4.3 0.00 0.00 0.00 52 1016.9
20260508172027 63 175 0.9 2.6 0.00 0.00 0.00 55 1017.0
20260508171523 62 275 2.6 4.3 0.00 0.00 0.00 53 1017.2
20260508171020 62 279 0.0 1.7 0.00 0.00 0.00 54 1017.1
20260508170517 62 160 0.9 2.6 0.00 0.00 0.00 50 1017.3
20260508170015 66 267 0.9 1.7 0.00 0.00 0.00 47 1017.4
20260508165512 64 157 0.9 1.7 0.00 0.00 0.00 47 1017.7
20260508165008 64 198 0.0 0.9 0.00 0.00 0.00 49 1017.7
20260508164505 62 339 4.3 5.2 0.00 0.00 0.00 50 1017.9
20260508164001 64 212 1.7 2.6 0.00 0.00 0.00 48 1017.8
20260508163459 62 317 1.7 4.3 0.00 0.00 0.00 47 1018.0
20260508162955 61 163 0.9 5.2 0.00 0.00 0.00 52 1018.0
20260508162453 62 162 0.0 2.6 0.00 0.00 0.00 49 1018.0
20260508161949 61 26 2.6 2.6 0.00 0.00 0.00 53 1018.0
20260508161446 60 118 1.7 2.6 0.00 0.00 0.00 52 1018.0
20260508160943 59 145 0.0 5.2 0.00 0.00 0.00 54 1018.2
20260508160443 59 192 0.9 1.7 0.00 0.00 0.00 58 1018.1
20260508155938 60 137 0.9 0.9 0.00 0.00 0.00 60 1018.3
20260508155436 60 218 0.9 1.7 0.00 0.00 0.00 50 1018.3
20260508154932 61 289 0.9 0.9 0.00 0.00 0.00 50 1018.3
20260508154430 61 308 1.7 1.7 0.00 0.00 0.00 56 1018.3
20260508153926 59 175 0.0 4.3 0.00 0.00 0.00 58 1018.6
20260508153423 59 254 1.7 2.6 0.00 0.00 0.00 59 1018.6
20260508152919 59 169 1.7 2.6 0.00 0.00 0.00 59 1018.6
20260508152416 59 102 1.7 2.6 0.00 0.00 0.00 57 1018.6
20260508151913 58 175 1.7 2.6 0.00 0.00 0.00 61 1018.6
20260508151410 60 151 0.0 1.7 0.00 0.00 0.00 56 1018.7
20260508150906 58 183 0.0 2.6 0.00 0.00 0.00 60 1018.5
20260508150403 58 164 0.0 0.9 0.00 0.00 0.00 59 1018.5
20260508145859 59 160 0.9 1.7 0.00 0.00 0.00 61 1018.4
20260508145355 58 0 1.7 2.6 0.00 0.00 0.00 62 1018.5
20260508144852 59 358 2.6 4.3 0.00 0.00 0.00 60 1018.6
20260508144350 59 173 0.9 1.7 0.00 0.00 0.00 61 1018.8
20260508143847 58 236 1.7 4.3 0.00 0.00 0.00 63 1018.7
20260508143344 57 213 1.7 4.3 0.00 0.00 0.00 62 1018.5
20260508142841 57 174 0.9 1.7 0.00 0.00 0.00 63 1018.6
20260508142338 56 268 1.7 2.6 0.00 0.00 0.00 65 1018.5
20260508141834 57 185 0.9 2.6 0.00 0.00 0.00 66 1018.7
20260508141331 55 98 2.6 4.3 0.00 0.00 0.00 66 1019.0
20260508140829 57 161 1.7 1.7 0.00 0.00 0.00 67 1019.0
20260508140325 55 173 1.7 1.7 0.00 0.00 0.00 67 1018.8
20260508135821 54 175 0.0 1.7 0.00 0.00 0.00 70 1019.1
20260508135318 52 230 1.7 1.7 0.00 0.00 0.00 74 1018.8
20260508134814 52 325 1.7 4.3 0.00 0.00 0.00 76 1019.0
20260508134311 52 296 1.7 2.6 0.00 0.00 0.00 75 1018.8
20260508133807 52 180 0.9 1.7 0.00 0.00 0.00 76 1018.8
20260508133305 51 254 1.7 4.3 0.00 0.00 0.00 77 1018.8
20260508132803 50 189 1.7 2.6 0.00 0.00 0.00 79 1019.1
20260508132300 50 173 0.9 2.6 0.00 0.00 0.00 80 1019.0
20260508131755 50 119 0.9 2.6 0.00 0.00 0.00 81 1019.1
20260508131252 49 253 0.9 0.9 0.00 0.00 0.00 83 1018.8
20260508130749 49 189 0.9 2.6 0.00 0.00 0.00 82 1018.7
20260508130246 49 265 1.7 2.6 0.00 0.00 0.00 82 1018.7
20260508125741 48 185 0.0 1.7 0.00 0.00 0.00 84 1018.5
20260508125238 48 355 3.5 4.3 0.00 0.00 0.00 85 1018.6
20260508124737 48 160 0.9 1.7 0.00 0.00 0.00 86 1018.8
20260508124233 47 239 0.9 1.7 0.00 0.00 0.00 88 1018.8
20260508123731 47 190 0.9 1.7 0.00 0.00 0.00 89 1018.6
20260508123229 46 162 0.9 0.9 0.00 0.00 0.00 91 1018.6
20260508122725 46 167 0.9 1.7 0.00 0.00 0.00 90 1018.4
20260508122222 46 160 0.0 0.9 0.00 0.00 0.00 91 1018.4
20260508121720 45 148 0.9 0.9 0.00 0.00 0.00 91 1018.5
20260508121218 46 154 0.9 0.9 0.00 0.00 0.00 91 1018.3
20260508120715 45 150 0.9 1.7 0.00 0.00 0.00 91 1018.3
20260508120213 46 175 0.0 0.0 0.00 0.00 0.00 91 1018.4
20260508115710 46 176 0.0 0.9 0.00 0.00 0.00 92 1018.1
20260508115207 46 280 1.7 1.7 0.00 0.00 0.00 92 1018.3
20260508114704 46 259 0.9 1.7 0.00 0.00 0.00 92 1018.2
20260508114201 45 155 0.0 0.9 0.00 0.00 0.00 92 1018.2
20260508113657 46 191 0.9 0.9 0.00 0.00 0.00 92 1018.0
20260508113156 45 195 0.0 0.9 0.00 0.00 0.00 92 1017.9
20260508112652 45 173 0.0 0.9 0.00 0.00 0.00 92 1017.7
20260508112149 45 170 0.0 0.9 0.00 0.00 0.00 92 1017.8
20260508111645 45 232 0.9 0.9 0.00 0.00 0.00 92 1017.8
20260508111143 45 205 0.0 0.9 0.00 0.00 0.00 92 1017.7
20260508110640 45 238 0.9 0.9 0.00 0.00 0.00 92 1017.4
20260508110137 45 233 1.7 1.7 0.00 0.00 0.00 92 1017.2
20260508105631 45 171 0.0 0.9 0.00 0.00 0.00 92 1017.3
20260508105128 45 197 0.9 0.9 0.00 0.00 0.00 92 1017.3
20260508104626 45 185 0.0 0.0 0.00 0.00 0.00 92 1016.9
20260508104122 45 185 0.9 0.9 0.00 0.00 0.00 92 1017.2
20260508103620 45 177 0.0 0.0 0.00 0.00 0.00 92 1017.1
20260508103117 44 169 0.0 0.0 0.00 0.00 0.00 92 1017.2
20260508102614 44 184 0.0 0.0 0.00 0.00 0.00 92 1017.0
20260508102112 44 173 0.0 0.0 0.00 0.00 0.00 92 1016.7
20260508101609 44 176 0.0 0.0 0.00 0.00 0.00 92 1016.9
20260508101107 44 173 0.0 0.0 0.00 0.00 0.00 92 1016.8
20260508100604 44 166 0.0 0.0 0.00 0.00 0.00 92 1016.5
20260508095558 43 168 0.0 0.9 0.00 0.00 0.00 92 1016.6
20260508095055 43 173 0.0 0.0 0.00 0.00 0.00 92 1016.6
20260508094552 43 169 0.0 0.0 0.00 0.00 0.00 92 1016.5
20260508094049 43 180 0.0 0.0 0.00 0.00 0.00 92 1016.4
20260508093546 43 162 0.0 0.0 0.00 0.00 0.00 92 1016.5
20260508093044 43 155 0.0 0.9 0.00 0.00 0.00 92 1016.7
20260508092541 42 156 0.0 0.0 0.00 0.00 0.00 92 1016.4
20260508092040 42 159 0.0 0.0 0.00 0.00 0.00 92 1016.5
20260508091536 42 173 0.0 0.0 0.00 0.00 0.00 92 1016.5
20260508091033 42 166 0.0 0.9 0.00 0.00 0.00 92 1016.3
20260508090531 42 161 0.0 0.0 0.00 0.00 0.00 92 1016.4
20260508090027 42 163 0.0 0.9 0.00 0.00 0.00 92 1016.4
20260508085524 42 174 0.0 0.0 0.00 0.00 0.00 92 1016.6
20260508085021 42 144 0.9 0.9 0.00 0.00 0.00 92 1016.4
20260508084518 42 175 0.0 0.0 0.00 0.00 0.00 92 1016.1
20260508084016 42 175 0.0 0.0 0.00 0.00 0.00 92 1016.3
20260508083512 43 160 0.0 0.9 0.00 0.00 0.00 92 1015.9
20260508083009 43 173 0.0 0.0 0.00 0.00 0.00 92 1015.9
20260508082505 43 178 0.0 0.9 0.00 0.00 0.00 92 1015.9
20260508082003 43 245 0.9 0.9 0.00 0.00 0.00 92 1016.3
20260508081500 43 153 1.7 1.7 0.00 0.00 0.00 92 1016.0
20260508080955 43 180 0.0 0.9 0.00 0.00 0.00 92 1015.9
20260508080454 43 166 0.0 0.0 0.00 0.00 0.00 92 1016.0
20260508075950 43 154 0.0 0.9 0.00 0.00 0.00 92 1015.8
20260508075447 43 181 0.0 0.9 0.00 0.00 0.00 92 1015.7
20260508074945 43 160 0.0 0.0 0.00 0.00 0.00 92 1015.7
20260508074443 44 155 0.0 0.9 0.00 0.00 0.00 92 1015.9
20260508073939 44 160 0.0 0.0 0.00 0.00 0.00 92 1015.8
20260508073437 44 144 0.0 0.0 0.00 0.00 0.00 92 1015.6
20260508072934 44 264 0.9 1.7 0.00 0.00 0.00 92 1015.4
20260508072430 44 168 0.9 0.9 0.00 0.00 0.00 92 1015.6
20260508071927 44 136 0.0 0.9 0.00 0.00 0.00 92 1015.4
20260508071425 45 149 0.0 0.0 0.00 0.00 0.00 92 1015.5
20260508070922 45 143 1.7 1.7 0.00 0.00 0.00 92 1015.5
20260508070420 45 128 0.9 1.7 0.00 0.00 0.00 91 1015.4
20260508065918 45 169 0.0 0.0 0.00 0.00 0.00 90 1015.4
20260508065416 46 154 0.0 1.7 0.00 0.00 0.00 90 1015.4
20260508064914 46 156 0.0 0.9 0.00 0.00 0.00 89 1015.0
20260508064411 46 142 0.9 1.7 0.00 0.00 0.00 88 1015.3
20260508063909 47 194 0.0 0.9 0.00 0.00 0.00 87 1015.2
20260508063406 48 151 0.9 0.9 0.00 0.00 0.00 86 1015.4
20260508062903 48 132 0.9 1.7 0.00 0.00 0.00 85 1015.5
20260508062401 49 147 0.9 1.7 0.00 0.00 0.00 82 1015.4
20260508061857 51 306 5.2 5.2 0.00 0.00 0.00 81 1015.1
20260508061355 50 174 0.9 1.7 0.00 0.00 0.00 81 1015.1
20260508060851 50 212 0.9 2.6 0.00 0.00 0.00 81 1015.1
20260508060349 49 193 3.5 4.3 0.00 0.00 0.00 84 1015.0
20260508055844 50 251 2.6 4.3 0.00 0.00 0.00 83 1015.2
20260508055342 50 262 1.7 1.7 0.00 0.00 0.00 82 1015.4
20260508054838 51 317 0.9 1.7 0.00 0.00 0.00 79 1015.3
20260508054335 51 181 0.9 2.6 0.00 0.00 0.00 76 1015.4
20260508053832 52 214 0.9 2.6 0.00 0.00 0.00 75 1015.3
20260508053330 51 130 5.2 7.8 0.00 0.00 0.00 72 1015.2
20260508052827 52 195 0.9 1.7 0.00 0.00 0.00 73 1015.3
20260508052324 52 181 2.6 2.6 0.00 0.00 0.00 76 1015.4
20260508051820 51 152 1.7 5.2 0.00 0.00 0.00 76 1015.5
20260508051316 50 265 4.3 6.1 0.00 0.00 0.00 79 1015.1
20260508050812 49 251 1.7 1.7 0.00 0.00 0.00 85 1015.3
20260508050310 50 92 2.6 2.6 0.00 0.00 0.00 84 1015.3
20260508045805 51 295 0.9 0.9 0.00 0.00 0.00 80 1015.2
20260508045306 51 189 1.7 4.3 0.00 0.00 0.00 76 1014.8
20260508044800 51 182 0.9 6.1 0.00 0.00 0.00 78 1015.4
20260508044256 50 146 0.9 1.7 0.00 0.00 0.00 83 1015.2
20260508043753 51 327 0.9 0.9 0.00 0.00 0.00 81 1015.2
20260508043250 51 146 0.0 2.6 0.00 0.00 0.00 79 1015.2
20260508042747 51 185 2.6 2.6 0.00 0.00 0.00 80 1015.2
20260508042244 51 156 0.9 1.7 0.00 0.00 0.00 79 1015.1
20260508041741 51 182 0.0 2.6 0.00 0.00 0.00 79 1015.2
20260508041238 50 148 1.7 2.6 0.00 0.00 0.00 82 1015.0
20260508040734 51 143 0.9 1.7 0.00 0.00 0.00 80 1015.0
20260508040231 51 164 0.9 1.7 0.00 0.00 0.00 79 1015.1
20260508035729 51 141 0.9 1.7 0.00 0.34 0.34 80 1015.2
20260508035226 51 195 2.6 2.6 0.00 0.34 0.34 78 1015.1
20260508034722 51 181 0.0 2.6 0.00 0.34 0.34 81 1014.7
20260508034220 52 159 0.0 1.7 0.00 0.34 0.34 78 1015.2
20260508033717 52 133 4.3 6.1 0.00 0.34 0.34 76 1015.1
20260508033215 52 107 1.7 6.1 0.00 0.34 0.34 76 1015.2
20260508032712 52 242 1.7 1.7 0.00 0.34 0.34 78 1015.3
20260508032209 52 211 0.9 2.6 0.00 0.34 0.34 79 1015.0
20260508031706 52 92 1.7 4.3 0.00 0.34 0.34 76 1015.0
20260508031202 52 147 1.7 1.7 0.00 0.34 0.34 79 1014.8
20260508030659 52 124 0.9 2.6 0.00 0.34 0.34 79 1014.8
20260508030157 52 165 2.6 7.0 0.00 0.34 0.34 77 1015.0
20260508025653 52 104 1.7 4.3 0.00 0.34 0.34 76 1014.8
20260508025150 52 138 3.5 6.1 0.00 0.34 0.34 77 1014.7
20260508024645 52 160 4.3 6.1 0.00 0.34 0.34 76 1014.8
20260508024143 52 124 2.6 5.2 0.00 0.34 0.34 78 1014.6
20260508023639 52 255 0.9 1.7 0.00 0.34 0.34 77 1014.5
20260508023137 52 138 1.7 13.9 0.00 0.34 0.34 76 1014.1
20260508022632 52 172 0.0 4.3 0.00 0.34 0.34 77 1014.3
20260508022130 52 96 4.3 8.7 0.00 0.34 0.34 75 1014.3
20260508021626 53 98 0.9 8.7 0.00 0.34 0.34 75 1014.1
20260508021121 53 203 2.6 6.1 0.00 0.34 0.34 75 1013.9
20260508020619 52 179 4.3 5.2 0.00 0.34 0.34 76 1014.2
20260508020117 52 179 0.9 6.1 0.00 0.34 0.34 75 1014.2
20260508015614 53 289 2.6 7.8 0.00 0.34 0.34 76 1013.9
20260508015111 53 140 2.6 7.8 0.00 0.34 0.34 74 1014.2
20260508014607 52 104 1.7 2.6 0.00 0.34 0.34 75 1014.0
20260508014104 52 217 7.8 8.7 0.00 0.34 0.34 78 1013.9
20260508013600 52 195 4.3 6.1 0.00 0.34 0.34 76 1013.6
20260508013057 52 213 0.9 6.1 0.00 0.34 0.34 75 1013.8
20260508012554 52 186 0.9 6.1 0.00 0.34 0.34 76 1013.6
20260508012051 52 237 1.7 5.2 0.00 0.34 0.34 75 1013.6